SCP
0 0 0 0 0 0 0 0 0 0 0 0 0 0 0 0 0 0 0 0 0 0 0 0 0 0 0 0 0 0 0 1 1 0 0 0 0 0 0 1 1 1 1
0 0 0 0 0 0 0 0 0 0 0 0 0 0 0 0 0 0 0 0 0 0 0 0 0 0 0 0 1 1 1 1 1 1 1 0 0 0 0 1 1 1 1
0 0 0 0 0 0 0 0 0 0 0 0 0 0 0 0 0 0 0 0 0 0 0 1 1 1 1 1 1 1 1 1 1 1 1 1 1 0 0 0 1 1 1
0 0 0 0 0 0 0 0 0 0 1 1 1 1 1 1 1 1 1 0 1 1 1 1 1 1 1 1 1 1 1 1 1 1 1 1 1 1 0 0 0 1 1
0 0 0 0 0 0 0 0 0 0 0 0 0 0 0 0 1 1 1 1 1 1 1 1 1 1 1 1 1 1 1 1 1 1 1 1 1 1 1 1 1 1 1
0 0 0 0 0 0 0 0 0 0 0 0 0 0 0 0 0 0 1 1 1 1 1 1 1 1 1 1 1 1 1 1 1 1 1 1 1 1 1 1 1 1 1
0 0 0 0 0 0 0 0 0 0 0 0 0 0 0 0 0 0 0 0 0 1 1 1 1 1 1 1 1 1 1 1 1 1 1 1 1 1 1 1 2 2 2
0 0 0 0 0 0 0 0 0 0 0 0 0 0 0 0 0 0 0 0 0 0 1 1 1 1 1 1 1 1 1 1 1 1 1 1 1 1 1 2 2 2 2
0 0 0 0 0 0 0 0 0 0 0 0 0 0 0 0 0 0 0 0 0 0 0 0 1 1 1 1 1 1 1 1 1 1 1 1 1 1 1 2 2 2 2
0 0 0 0 0 0 0 0 0 0 0 0 0 0 0 0 0 0 0 0 0 0 0 0 0 1 1 1 1 1 1 1 1 1 1 1 1 1 1 1 2 2 2
0 0 0 0 0 0 0 0 0 0 0 0 0 0 0 0 0 0 0 0 0 0 0 0 0 0 0 1 1 1 1 1 1 1 1 1 1 1 1 2 2 2 2
0 0 0 0 0 0 0 0 0 0 0 0 0 0 0 0 0 0 0 0 0 0 0 0 0 0 0 0 1 1 1 1 1 1 1 1 1 1 1 2 2 2 2
0 0 0 0 0 0 0 0 0 0 0 0 0 0 0 0 0 0 0 0 0 0 0 0 0 0 0 0 0 0 1 1 1 1 1 1 1 1 1 2 2 2 2
0 0 0 0 0 0 0 0 0 0 0 0 0 0 0 0 0 0 0 0 0 0 0 0 0 0 0 0 0 0 0 1 1 1 1 1 1 1 1 2 2 2 2
0 0 0 0 0 0 0 0 0 0 0 0 0 0 0 0 0 0 0 0 0 0 0 0 0 0 0 0 0 0 0 0 1 1 1 1 1 1 1 2 2 2 3
0 0 0 0 0 0 0 0 0 0 0 0 0 0 0 0 0 0 0 0 0 0 0 0 0 0 0 0 0 0 0 0 0 1 1 1 0 1 1 2 2 2 3
0 0 0 0 0 0 0 0 0 0 0 0 0 0 0 0 0 0 0 0 0 0 0 0 0 0 0 0 0 0 0 0 0 0 1 1 0 0 1 1 2 2 3
0 0 0 0 0 0 0 0 0 0 0 0 0 0 0 0 0 0 -0 -0 -0 0 0 0 0 0 0 0 0 0 0 0 0 0 0 0 0 0 0 1 1 2 3
0 0 0 0 0 0 0 0 0 0 0 0 0 0 0 0 0 0 0 -0 -0 -0 -0 0 0 0 0 0 0 0 0 0 0 0 0 0 0 0 0 0 1 1 2
0 0 0 0 0 0 0 0 0 0 0 0 0 0 0 0 0 0 0 0 0 -0 -0 0 0 0 0 0 0 0 0 0 0 0 0 0 0 0 0 0 0 1 1
0 0 0 0 0 0 0 0 0 0 0 0 0 0 0 0 0 0 0 0 0 -0 -0 0 0 0 0 0 0 0 0 0 0 0 0 0 0 0 0 1 1 1 1
0 0 0 0 0 0 0 0 0 0 0 0 0 0 0 0 0 0 0 0 0 0 0 0 0 0 0 0 0 0 0 0 0 0 0 0 0 0 0 1 1 1 1
0 0 0 0 0 0 0 0 0 0 0 0 0 0 0 0 0 0 0 0 0 0 0 0 0 0 0 0 0 0 0 0 0 0 0 0 0 0 0 0 1 1 1
0 0 0 0 0 0 0 0 0 0 0 0 0 0 0 0 0 0 0 0 0 0 0 0 0 0 0 0 0 0 0 0 0 0 0 0 0 0 0 0 1 1 1
0 0 0 0 0 0 0 0 0 0 0 0 0 0 0 0 0 0 0 0 0 0 0 0 0 0 0 0 0 0 0 0 0 0 0 0 0 0 0 0 0 0 1
0 0 0 0 0 0 0 0 0 0 0 0 0 0 0 0 0 0 0 0 0 0 0 0 0 0 0 0 0 0 0 0 0 0 0 0 0 0 0 0 0 0 0
Wind_Speed
10 13 19 18 14 10 7 6 6 5 5 4 4 4 5 5 5 6 7 9 10 10 10 11 11 10 10 10 9 8 7 6 6 6 5 4 6 9 9 9 9 7 10
7 10 16 16 16 17 14 10 7 5 5 6 7 8 8 8 7 7 7 8 9 10 11 11 12 12 12 11 9 9 8 7 7 6 6 5 5 8 11 11 11 9 12
7 9 11 14 15 17 19 19 18 14 11 10 10 11 11 12 11 11 11 9 9 10 11 12 12 12 11 10 10 10 9 7 7 7 6 3 3 7 11 11 13 14 14
7 8 8 13 16 18 19 20 21 20 19 18 17 16 15 15 14 14 14 13 12 12 13 14 14 12 10 9 10 11 9 7 6 7 3 2 3 7 11 12 15 16 15
6 8 9 14 17 19 21 22 22 22 22 22 21 20 20 20 20 18 16 15 16 16 16 16 16 13 11 11 9 9 9 6 6 5 3 3 3 7 13 15 16 15 14
6 7 9 14 17 19 21 22 22 22 22 22 22 22 21 21 22 23 23 21 18 18 18 18 17 14 12 12 10 9 8 6 5 3 3 5 5 10 15 14 14 15 14
5 7 8 14 16 18 20 20 21 21 21 21 21 21 22 22 22 23 24 24 24 22 20 20 18 15 13 12 10 9 8 6 4 3 4 5 7 14 16 15 15 14 17
3 5 5 10 15 17 19 19 19 19 19 19 20 20 20 21 22 23 24 25 26 26 26 23 20 17 14 12 11 9 7 7 4 4 6 6 10 16 19 18 16 17 18
2 3 4 4 6 11 15 16 16 17 17 16 17 17 17 18 20 22 23 24 24 24 25 25 25 20 17 14 12 10 8 8 5 4 6 6 11 18 21 19 18 19 19
2 3 3 3 4 3 5 12 14 15 15 14 13 14 14 14 17 20 20 22 24 24 24 22 23 25 22 17 14 11 10 9 6 6 5 7 14 21 23 22 21 21 21
3 4 4 4 4 3 3 5 7 9 11 9 8 9 7 4 6 10 16 22 23 23 23 21 20 22 22 16 14 12 11 5 5 6 6 10 16 22 25 23 22 22 21
2 3 4 5 5 4 4 3 3 4 4 4 4 3 3 3 6 10 13 19 19 20 19 18 19 17 13 9 10 9 7 6 6 7 7 13 18 23 25 25 24 23 23
2 3 6 6 6 6 5 5 4 4 4 4 5 5 4 3 4 6 6 9 8 10 8 9 8 6 6 6 7 9 10 7 6 7 8 15 19 23 26 26 26 25 25
4 4 6 7 7 6 6 4 4 4 4 4 5 4 3 3 4 5 4 5 5 5 5 5 5 6 6 7 8 10 13 11 8 7 9 15 19 24 28 28 29 27 27
4 4 5 6 7 6 5 4 4 4 5 6 6 6 5 4 5 6 5 6 6 6 6 6 6 7 7 7 9 9 12 14 14 9 8 14 19 24 29 30 30 30 29
5 4 4 5 5 5 3 3 3 4 4 5 5 6 6 5 5 7 7 6 7 8 8 8 7 7 7 8 9 10 10 12 15 14 10 11 17 22 27 30 30 31 31
5 4 4 5 6 6 5 4 4 5 5 5 5 6 5 5 6 6 6 6 6 8 10 10 10 7 7 8 9 10 10 11 13 15 14 11 13 18 25 30 31 32 31
5 5 4 3 3 3 3 4 4 4 4 4 5 5 5 6 6 6 6 5 6 7 7 8 9 9 9 9 9 9 10 11 13 14 15 13 11 11 16 25 30 31 32
8 6 4 2 1 1 2 2 3 3 3 4 5 4 5 5 5 5 5 5 6 6 6 7 8 9 10 10 10 11 11 11 12 13 15 15 14 13 12 16 24 26 29
7 6 4 2 2 2 2 3 3 3 3 4 4 4 4 5 6 6 6 7 7 6 6 7 9 10 11 11 11 13 14 14 13 14 16 14 14 14 14 14 12 15 21
7 6 4 2 2 2 1 2 3 4 4 3 4 5 5 6 7 7 5 7 8 7 8 9 10 12 11 9 11 14 16 15 16 15 13 13 14 14 14 15 12 9 12
7 6 5 4 3 2 1 2 3 4 5 4 4 5 5 5 7 7 5 5 7 7 9 9 8 9 11 9 10 13 14 15 12 12 13 14 13 12 14 15 15 13 10
8 7 6 4 3 2 2 2 2 3 4 3 3 4 4 5 7 7 6 6 8 8 7 7 8 13 14 11 10 12 11 11 8 8 8 9 10 9 12 13 16 14 13
8 7 6 3 3 3 2 1 1 2 4 4 4 5 6 6 7 6 6 7 9 8 8 8 10 9 12 13 12 14 18 14 12 16 12 10 9 6 8 12 13 15 14
8 7 6 3 3 3 2 2 2 4 5 5 5 6 7 7 7 7 7 8 9 8 9 10 11 11 10 12 13 13 14 14 15 18 16 14 14 10 7 9 10 12 14
8 6 5 2 3 3 3 3 3 6 7 7 9 8 7 7 7 8 9 9 9 9 10 10 12 11 10 12 13 15 14 12 10 13 15 13 14 14 11 7 10 10 12
Wind_Direction
339 342 359 6 13 10 354 338 328 319 305 309 308 305 303 304 306 310 315 317 317 316 313 309 305 302 299 297 296 300 319 294 248 234 229 241 245 241 222 195 200 193 177
314 338 356 9 22 26 27 18 346 301 288 296 305 307 302 297 294 286 277 276 285 295 303 307 306 304 300 296 295 296 300 305 263 241 225 217 230 234 225 196 196 197 182
340 334 344 20 28 31 35 37 32 26 17 358 339 323 312 304 298 290 283 277 278 284 290 296 298 298 297 297 295 291 289 300 258 243 230 212 223 239 231 200 194 198 188
338 326 339 30 38 41 41 40 37 33 30 25 16 5 351 335 320 307 296 294 296 295 294 295 294 293 288 283 283 285 288 297 260 239 224 225 225 235 233 210 198 200 191
338 329 348 32 39 42 42 41 38 35 32 28 22 18 13 7 360 348 333 316 306 301 297 295 293 293 292 285 276 274 282 287 271 240 216 221 231 231 226 215 201 197 190
344 333 352 28 36 39 39 39 37 36 33 31 27 22 17 14 13 8 1 349 329 309 299 294 292 291 289 290 293 284 279 274 263 238 213 219 228 233 227 216 205 194 184
353 334 346 27 35 39 39 38 37 35 35 32 28 25 22 20 17 14 11 6 356 340 318 303 295 292 287 282 283 281 272 263 237 216 218 214 224 239 234 220 209 197 191
358 336 342 16 33 39 40 39 38 37 35 31 27 25 24 23 23 19 13 10 6 359 350 335 313 298 290 282 279 275 266 263 242 210 219 222 220 228 232 223 211 202 202
10 356 348 354 25 37 40 38 37 37 36 34 30 27 22 21 22 16 10 9 6 1 357 352 344 325 298 285 277 270 256 254 244 231 221 225 227 231 233 229 215 206 205
23 23 10 4 13 21 31 31 30 30 29 28 26 25 23 19 15 12 8 4 1 359 356 352 352 350 335 307 281 264 258 253 237 234 228 229 226 232 233 228 221 214 207
20 20 18 16 16 14 36 22 18 17 15 12 8 9 10 8 8 10 5 360 357 354 351 351 352 354 351 336 303 271 262 256 228 231 226 229 228 235 234 229 226 219 210
40 17 22 25 18 14 17 4 353 353 340 332 332 328 333 349 0 6 3 358 354 349 346 347 348 351 359 352 331 299 271 251 238 241 230 228 228 237 240 231 227 223 212
89 37 26 23 20 21 11 2 352 343 330 325 333 340 338 349 357 3 358 352 345 339 333 336 338 341 341 341 333 326 303 265 255 247 234 229 228 233 240 235 229 222 215
90 52 33 27 24 21 17 9 355 339 339 331 326 330 335 347 357 354 348 340 334 325 314 314 311 312 320 322 318 317 315 294 265 251 235 227 227 230 235 235 231 224 217
105 76 44 34 29 18 20 4 352 344 346 337 332 337 357 3 352 344 346 339 331 322 312 308 301 296 302 304 307 308 300 301 281 256 242 227 223 227 233 233 228 227 218
132 108 80 58 40 32 27 4 350 349 341 333 325 330 353 359 355 353 338 333 334 330 317 305 293 285 287 294 294 294 292 293 294 270 250 236 225 227 232 235 228 226 221
121 95 75 59 35 21 9 356 351 350 349 332 321 326 353 356 4 348 333 327 327 331 321 309 301 289 283 281 281 284 287 291 290 290 268 249 239 228 229 235 233 226 222
131 120 96 70 38 5 348 336 330 330 326 319 316 318 347 359 3 350 336 320 322 318 306 301 299 298 297 292 284 281 281 283 283 283 280 257 245 238 230 234 237 230 222
156 147 143 162 209 276 288 282 278 283 299 302 303 309 343 354 353 345 326 318 316 309 305 302 297 294 291 288 283 281 278 277 283 280 274 268 251 241 238 233 234 233 226
161 158 166 200 233 276 291 296 284 274 269 269 284 304 335 340 342 337 327 328 326 316 308 305 295 286 280 277 279 282 278 272 273 269 260 260 259 242 238 239 232 231 230
169 169 174 187 240 245 277 312 302 284 280 279 299 324 335 333 331 322 320 328 320 309 301 290 281 278 273 278 283 286 279 267 262 261 252 247 252 245 234 235 232 226 228
175 178 189 209 235 234 226 251 261 273 281 291 304 313 316 311 307 306 306 302 297 286 276 272 276 289 278 270 275 287 289 287 269 254 239 233 240 242 235 225 223 220 216
183 188 196 217 255 249 236 261 280 287 287 274 273 287 287 291 287 288 283 287 288 276 274 283 283 279 281 276 272 271 268 274 328 304 285 254 241 225 235 223 217 214 207
193 188 196 213 252 243 236 263 286 269 269 274 293 289 296 289 280 271 262 269 275 273 281 284 277 276 281 284 278 269 263 264 280 294 292 303 292 250 257 243 216 209 207
183 183 193 217 265 261 256 263 283 275 263 274 279 291 293 283 276 281 276 269 273 276 282 284 277 269 265 276 284 284 279 259 249 264 273 287 296 282 251 260 239 208 208
177 177 187 223 264 274 281 291 299 288 291 301 313 313 302 296 291 282 279 280 281 279 278 279 273 269 276 275 278 279 272 271 248 250 260 267 279 288 278 257 260 221 207